Scottsbluff, NE

11:00 AM MDT on October 15, 2019 (GMT -0600)
Heilig

Weather History for KBFF - August, 2019

Change the Weather History Date:

Saturday, August 24, 2019

  Actual Average Record
Temperature  
Mean Temperature 70 °F -  
Max Temperature 82 °F 86 °F 103 °F (1936)
Min Temperature 57 °F 54 °F 41 °F (1928)
Cooling Degree Days 4    
Growing Degree Days 20 (Base 50)    
Moisture  
Dew Point 59 °F    
Average Humidity 72    
Maximum Humidity 96    
Minimum Humidity 35    
Precipitation  
Precipitation 0.00 in - - ()
Sea Level Pressure  
Sea Level Pressure 29.85 in    
Wind  
Wind Speed 7 mph (ESE)    
Max Wind Speed 14 mph    
Max Gust Speed 18 mph    
Visibility 10 miles    
Events      
Averages and records for this station are not official NWS values.
T = Trace of Precipitation, MM = Missing Value Source: NWS Daily Summary

Daily Weather History Graph

Daily Weather History Graph

Search for Another Location

Airport or City:

Astronomy

Aug. 24, 2019 Rise Set
Actual Time 6:11 AM MDT 7:41 PM MDT
Civil Twilight 5:42 AM MDT 8:10 PM MDT
Nautical Twilight 5:07 AM MDT 8:45 PM MDT
Astronomical Twilight 4:29 AM MDT 9:22 PM MDT
Moon 12:04 AM MDT (8/24) 3:01 PM MDT (8/24)
Length of Visible Light 14h 27m
Length of Day
13h 29m
Last Quarter, 38% of the Moon is Illuminated
Aug 24
Last Quarter
Aug 30
New
Sep 5
First Quarter
Sep 13
Full
Sep 21
Last Quarter

Hourly Weather History & Observations

Time (MDT) Temp. Heat Index Dew Point Humidity Pressure Visibility Wind Dir Wind Speed Gust Speed Precip Events Conditions
12:53 AM 63.0 °F - 57.0 °F 81% 29.89 in 10.0 mi South 5.8 mph - N/A   Clear
1:53 AM 60.1 °F - 57.0 °F 90% 29.88 in 10.0 mi NE 4.6 mph - N/A   Clear
2:53 AM 60.1 °F - 57.0 °F 90% 29.89 in 10.0 mi ESE 5.8 mph - N/A   Clear
3:53 AM 59.0 °F - 57.0 °F 93% 29.92 in 10.0 mi ESE 6.9 mph - N/A   Clear
4:53 AM 60.1 °F - 55.9 °F 86% 29.88 in 10.0 mi South 4.6 mph - N/A   Clear
5:53 AM 57.0 °F - 55.0 °F 93% 29.88 in 10.0 mi ENE 4.6 mph - N/A   Clear
6:53 AM 57.0 °F - 55.9 °F 96% 29.90 in 10.0 mi NE 6.9 mph - N/A   Clear
7:53 AM 61.0 °F - 57.9 °F 90% 29.92 in 10.0 mi ESE 9.2 mph - N/A   Clear
8:53 AM 63.0 °F - 59.0 °F 87% 29.89 in 10.0 mi ESE 9.2 mph - N/A   Overcast
9:53 AM 69.1 °F - 61.0 °F 75% 29.87 in 10.0 mi SE 11.5 mph - N/A   Clear
10:18 AM 72.0 °F - 61.0 °F 68% 29.98 in 10.0 mi South 13.8 mph 18.4 mph N/A   Mostly Cloudy
10:53 AM 72.0 °F - 60.1 °F 66% 29.86 in 10.0 mi SSW 11.5 mph - N/A   Mostly Cloudy
11:53 AM 75.0 °F - 57.9 °F 55% 29.86 in 10.0 mi SSW 6.9 mph - N/A   Scattered Clouds
12:53 PM 78.1 °F - 60.1 °F 54% 29.83 in 10.0 mi East 3.5 mph - N/A   Partly Cloudy
1:53 PM 81.0 °F 81.3 °F 59.0 °F 47% 29.83 in 10.0 mi Variable 3.5 mph - N/A   Partly Cloudy
2:53 PM 82.0 °F 82.4 °F 60.1 °F 47% 29.81 in 10.0 mi Calm Calm - N/A   Clear
3:53 PM 82.0 °F 82.7 °F 61.0 °F 49% 29.80 in 10.0 mi East 8.1 mph - N/A   Clear
4:53 PM 82.0 °F 82.4 °F 60.1 °F 47% 29.80 in 10.0 mi ESE 9.2 mph - N/A   Clear
5:53 PM 81.0 °F 81.1 °F 57.9 °F 45% 29.80 in 10.0 mi ESE 11.5 mph - N/A   Clear
6:53 PM 75.9 °F - 62.1 °F 62% 29.81 in 10.0 mi ESE 9.2 mph - N/A   Clear
7:53 PM 73.0 °F - 63.0 °F 71% 29.81 in 10.0 mi East 9.2 mph - N/A   Clear
8:53 PM 70.0 °F - 63.0 °F 78% 29.82 in 10.0 mi ESE 9.2 mph - N/A   Clear
9:53 PM 68.0 °F - 62.1 °F 81% 29.83 in 10.0 mi ESE 9.2 mph - N/A   Clear
10:53 PM 64.9 °F - 62.1 °F 90% 29.81 in 10.0 mi East 8.1 mph - N/A   Clear
11:53 PM 64.0 °F - 63.0 °F 96% 29.80 in 10.0 mi ESE 6.9 mph - N/A   Clear